User: anonymous   Login
Location: Hokitika
(42.7170°S, 170.9670°E)
Time: 22:48:37
(UTC+13:00)
Language:

Lacrosse 5 rocket - Orbit

View from above orbital plane
View from above orbital plane
View from above satellite
View from above satellite

Ground track
Ground track

The orbit data is extracted from the following two-line orbital elements,

1 28647U 05016B   19295.83804371 +.00000074 +00000-0 +22762-4 0  9993
2 28647 056.9954 130.7200 0130463 073.4147 288.1172 15.05794812024011
Epoch (UTC): 22 October 2019 20:06:46
Eccentricity: 0.0130463
inclination: 56.9954°
perigee height: 458 km
apogee height: 639 km
right ascension of ascending node: 130.7200°
argument of perigee: 73.4147°
revolutions per day: 15.05794812
mean anomaly at epoch: 288.1172°
orbit number at epoch: 2401

The dashed part of the orbit path shows where the satellite is in the earth's shadow,  

DLR